Weather Roundup
Issued by NWS

Home | Current Version | Previous Version | Text Only | Print | Product List | Glossary On
Versions: 1 2 3 4 5 6 7 8 9 10 11 12 13 14 15 16 17 18 19 20 21 22 23 24 25 26 27 28 29 30 31 32 33 34 35 36 37 38 39 40 41 42 43 44 45 46 47 48 49 50
000
NZUS93 KARX 190259
HRRWXR

CURRENT HOURLY OBSERVATIONS ACROSS
MUCH OF THE UPPER MISSISSIPPI VALLEY
NATIONAL WEATHER SERVICE LA CROSSE WI
1000 PM CDT FRI AUG 18 2017


...SOUTHEAST MINNESOTA...


CITY           SKY/WX    TMP DP  RH WIND       PRES   REMARKS
ROCHESTER      FAIR      59  56  89 SW6       29.95R
ROCHESTER/MAYO FAIR      64  59  83 CALM      29.94R
WINONA         FAIR      61  61 100 NW3       29.93R
AUSTIN         FAIR      59  57  94 CALM      29.94R
ALBERT LEA     FAIR      66  63  88 CALM      29.94R
DODGE CENTER   FAIR      57  55  94 CALM      29.94S
PRESTON        FAIR      61  54  79 W3        29.95R
OWATONNA       FAIR      63  59  88 S5        29.94R
FARIBAULT      FAIR      61  59  94 CALM      29.94R
$$

...ELSEWHERE IN MINNESOTA...


CITY           SKY/WX    TMP DP  RH WIND       PRES   REMARKS
MINNEAPOLIS    MOCLDY    68  59  73 CALM      29.92R
INTNL FALLS    FAIR      60  56  86 SW6       29.82R
DULUTH         FAIR      60  59  96 W5        29.87S
RED WING       FAIR      63  59  88 CALM      29.92R
REDWOOD FALLS  FAIR      61  58  90 W7        29.92R
MANKATO        FAIR      66  62  87 S7        29.92R
WORTHINGTON    FAIR      61  59  93 CALM      29.94R
FAIRMONT       RAIN      60  59  96 S9        29.94F
$$

...SOUTHWEST WISCONSIN...


CITY           SKY/WX    TMP DP  RH WIND       PRES   REMARKS
LA CROSSE      FAIR      64  61  90 NE3       29.91R
PRAIRIE DU CHI FAIR      62  59  91 CALM      29.91R
BOSCOBEL       FAIR      62  60  93 CALM      29.92R FOG
LONE ROCK      NOT AVBL
PLATTEVILLE    FAIR      65  62  90 CALM      29.93R
FORT MC COY    FAIR      60  60 100 CALM      29.92R FOG
MAUSTON-NEW LI CLOUDY    66  62  87 CALM      29.90R
VIROQUA        FAIR      62  62 100 W5        29.93R
WIS DELLS      CLOUDY    65  59  80 CALM      29.91R
$$

...ELSEWHERE IN WISCONSIN...


CITY           SKY/WX    TMP DP  RH WIND       PRES   REMARKS
MILWAUKEE      FAIR      72  60  66 W7        29.87R
MADISON        CLOUDY    67  61  81 W3        29.90R
GREEN BAY      FAIR      64  62  93 N6        29.86R
EAU CLAIRE     FAIR      65  61  87 CALM      29.90R
BLACK RVR FLS  FOG       60  60 100 CALM      29.91R VSB 1/2
MEDFORD        FAIR      62  59  93 W5        29.91R
WAUSAU         FAIR      64  59  83 NW5       29.88R
WIS RAPIDS     CLOUDY    65  64  97 W7        29.91R
MARSHFIELD     FAIR      64  61  90 NW7       29.91R
RICE LAKE      FAIR      63  61  94 CALM      29.92R FOG
$$

...NORTHEAST IOWA...


CITY           SKY/WX    TMP DP  RH WIND       PRES   REMARKS
WATERLOO       FAIR      62  60  93 CALM      29.91R
DUBUQUE        FAIR      63  59  87 N5        29.93R
DECORAH        FAIR      61  59  94 CALM      29.93R
MASON CITY     MOCLDY    62  60  93 CALM      29.95R
CHARLES CITY   FAIR      59  59 100 CALM      29.94R
OELWEIN        FAIR      63  61  94 NE3       29.93S
$$

...ELSEWHERE IN IOWA...


CITY           SKY/WX    TMP DP  RH WIND       PRES   REMARKS
DES MOINES     MOCLDY    78  66  66 E8        29.90R
IOWA CITY      FAIR      71  62  73 NE6       29.92R
FORT DODGE     FAIR      66  61  82 E5        29.92S
MARSHALLTOWN   FAIR      66  61  84 E7        29.91R
CEDAR RAPIDS   FAIR      66  61  84 E8        29.92R
$$

...NORTHERN ILLINOIS...


CITY           SKY/WX    TMP DP  RH WIND       PRES   REMARKS
CHICAGO-OHARE  MOCLDY    74  61  63 W6        29.88R
CHICAGO-MIDWAY MOCLDY    76  61  59 W6        29.88R
MOLINE         FAIR      74  60  61 N3        29.89S
ROCKFORD       FAIR      67  60  78 N6        29.91S
PEORIA         FAIR      70  67  90 SW6       29.91R
$$

NOTE: "FAIR" INDICATES FEW OR NO CLOUDS BELOW 12,000 FEET WITH NO
SIGNIFICANT WEATHER AND/OR OBSTRUCTIONS TO VISIBILITY. WIND
SPEEDS ARE IN MILES-PER-HOUR.




USA.gov is the U.S. government's official web portal to all federal, state and local government web resources and services.